Change the Weather History Date:

Saturday, October 1, 2011

  Actual Average Record
Temperature  
Mean Temperature 64 °F 50 °F  
Max Temperature 76 °F 69 °F 86 °F (2010)
Min Temperature 52 °F 32 °F 14 °F (1898)
Degree Days  
Heating Degree Days 1 15  
Month to date heating degree days 1 15  
Since 1 July heating degree days 139 331  
Cooling Degree Days 0 0  
Month to date cooling degree days 0 0  
Year to date cooling degree days 259 218  
Growing Degree Days 14 (Base 50)    
Moisture  
Dew Point 37 °F    
Average Humidity 39    
Maximum Humidity 54    
Minimum Humidity 23    
Precipitation  
Precipitation 0.00 in 0.03 in 1.09 in (1976)
Month to date precipitation 0.00 0.03  
Year to date precipitation 10.26 7.50  
Snow  
Snow 0.00 in 0.10 in 8.70 in (2002)
Month to date snowfall 0.0 0.1  
Since 1 July snowfall T 0.5  
Since 1 September snowfall 0.0 0.5  
Snow Depth 0.00 in    
Sea Level Pressure  
Sea Level Pressure 29.94 in    
Wind  
Wind Speed 11 mph (South)    
Max Wind Speed 22 mph    
Max Gust Speed 31 mph    
Visibility 10 miles    
Events      
T = Trace of Precipitation, MM = Missing Value Source: NWS Daily Summary

Daily Weather History Graph

Daily Weather History Graph

Search for Another Location

Airport or City:

Trip Planner

Search our weather history database for the weather conditions in past years. The results will help you decide how hot, cold, wet, or windy it might be!

Date:

Astronomy

Oct. 01, 2011 Rise Set
Actual Time 6:35 AM PDT 6:22 PM PDT
Civil Twilight 6:08 AM PDT 6:48 PM PDT
Nautical Twilight 5:37 AM PDT 7:19 PM PDT
Astronomical Twilight 5:06 AM PDT 7:51 PM PDT
Moon 11:43 AM PDT (10/1) 9:25 PM PDT (10/1)
Length of Visible Light 12h 40m
Length of Day
11h 46m
Waxing Crescent, 25% of the Moon is Illuminated
Oct 1
Waxing Crescent
Oct 3
First Quarter
Oct 11
Full
Oct 19
Last Quarter
Oct 26
New

Hourly Weather History & Observations

Time (PDT) Temp. Dew Point Humidity Pressure Visibility Wind Dir Wind Speed Gust Speed Precip Events Conditions
12:53 AM 55.9 °F 35.1 °F 45% 29.94 in 10.0 mi SSE 9.2 mph - N/A   Clear
1:53 AM 55.9 °F 34.0 °F 44% 29.95 in 10.0 mi SSE 9.2 mph - N/A   Clear
2:53 AM 60.1 °F 37.0 °F 42% 29.92 in 10.0 mi South 9.2 mph - N/A   Clear
3:53 AM 59.0 °F 37.0 °F 44% 29.91 in 10.0 mi SSW 11.5 mph - N/A   Clear
4:53 AM 55.0 °F 37.0 °F 51% 29.94 in 10.0 mi SSW 10.4 mph - N/A   Clear
5:53 AM 54.0 °F 37.0 °F 53% 29.94 in 10.0 mi South 9.2 mph - N/A   Clear
6:53 AM 55.0 °F 37.9 °F 53% 29.95 in 10.0 mi SSW 11.5 mph - N/A   Clear
7:53 AM 60.1 °F 39.0 °F 46% 29.95 in 10.0 mi SSW 6.9 mph - N/A   Clear
8:53 AM 66.9 °F 41.0 °F 39% 29.95 in 10.0 mi South 13.8 mph 18.4 mph N/A   Clear
9:53 AM 70.0 °F 39.0 °F 32% 29.96 in 10.0 mi South 16.1 mph 25.3 mph N/A   Clear
10:53 AM 73.0 °F 36.0 °F 26% 29.96 in 10.0 mi SSW 13.8 mph 25.3 mph N/A   Partly Cloudy
11:53 AM 73.9 °F 37.0 °F 26% 29.96 in 10.0 mi South 17.3 mph 31.1 mph N/A   Partly Cloudy
12:53 PM 75.0 °F 36.0 °F 24% 29.93 in 10.0 mi South 17.3 mph 28.8 mph N/A   Partly Cloudy
1:53 PM 75.0 °F 36.0 °F 24% 29.91 in 10.0 mi South 12.7 mph 21.9 mph N/A   Mostly Cloudy
2:53 PM 73.9 °F 35.1 °F 24% 29.89 in 10.0 mi SW 12.7 mph 20.7 mph N/A   Mostly Cloudy
3:53 PM 71.1 °F 36.0 °F 28% 29.90 in 10.0 mi SW 16.1 mph 19.6 mph N/A   Overcast
4:53 PM 72.0 °F 37.0 °F 28% 29.89 in 10.0 mi SW 3.5 mph - N/A   Partly Cloudy
5:21 PM 71.6 °F 35.6 °F 27% 30.15 in 10.0 mi SSE 16.1 mph 23.0 mph N/A   Scattered Clouds
5:53 PM 70.0 °F 36.0 °F 29% 29.90 in 10.0 mi SSE 12.7 mph - N/A   Scattered Clouds
6:53 PM 60.1 °F 36.0 °F 41% 29.94 in 10.0 mi South 8.1 mph - N/A   Clear
7:00 PM - - N/A% - - North - - N/A   Unknown
7:53 PM 60.1 °F 37.0 °F 42% 29.94 in 10.0 mi South 9.2 mph - N/A   Clear
8:53 PM 57.9 °F 37.0 °F 46% 29.93 in 10.0 mi SSW 10.4 mph - N/A   Clear
9:53 PM 57.9 °F 37.0 °F 46% 29.93 in 10.0 mi SSW 12.7 mph - N/A   Clear
10:53 PM 60.1 °F 37.0 °F 42% 29.92 in 10.0 mi SSW 13.8 mph - N/A   Clear
11:53 PM 55.0 °F 37.0 °F 51% 29.93 in 10.0 mi South 10.4 mph - N/A   Partly Cloudy